EW0364 Weather Reports


time (UTC)temp
C
wind
direction
speed
KPH
gust
KPH
rain 1hr
cm
rain 24hr
cm
rain mn
cm
humidity
%
barometer
mb
20260507192607 18 279 11.3 24.1 0.00 1.40 0.97 36 1004.6
20260507191707 17 243 11.3 24.1 0.00 1.40 0.97 45 1004.8
20260507184107 17 277 9.7 20.9 0.00 1.40 0.97 44 1005.2
20260507183207 17 281 9.7 17.7 0.00 1.40 0.97 46 1005.3
20260507182307 17 284 12.9 24.1 0.00 1.40 0.97 45 1005.5
20260507181407 17 277 12.9 25.7 0.00 1.40 0.97 45 1005.7
20260507175607 17 288 8.0 24.1 0.00 1.40 0.97 54 1005.7
20260507174707 16 286 6.4 16.1 0.00 1.40 0.97 55 1005.6
20260507173806 16 320 6.4 14.5 0.00 1.40 0.97 57 1005.7
20260507172007 16 275 6.4 12.9 0.00 1.40 0.97 61 1005.9
20260507170206 16 304 4.8 20.9 0.00 1.40 0.97 61 1006.1
20260507165307 16 260 6.4 16.1 0.00 1.40 0.97 62 1006.3
20260507164406 16 294 8.0 17.7 0.00 1.40 0.97 64 1006.4
20260507163506 16 275 8.0 19.3 0.00 1.40 0.97 61 1006.4
20260507162606 16 282 8.0 16.1 0.00 1.40 0.97 63 1006.4
20260507161706 16 339 6.4 14.5 0.00 1.40 0.97 64 1006.6
20260507160806 15 302 6.4 14.5 0.00 1.40 0.97 67 1006.7
20260507155008 15 298 6.4 20.9 0.00 1.40 0.97 68 1007.0
20260507154106 15 293 6.4 16.1 0.00 1.40 0.97 69 1007.0
20260507153206 14 282 8.0 16.1 0.00 1.40 0.97 69 1007.1
20260507152307 14 355 6.4 14.5 0.00 1.40 0.97 71 1007.3
20260507151406 14 4 9.7 17.7 0.00 1.40 0.97 70 1007.2
20260507150506 14 329 8.0 16.1 0.00 1.40 0.97 70 1007.3
20260507145607 13 331 6.4 19.3 0.00 1.40 0.97 75 1007.3
20260507144706 13 349 4.8 14.5 0.00 1.40 0.97 76 1007.3
20260507143806 13 316 6.4 17.7 0.00 1.40 0.97 80 1007.3
20260507142906 12 335 3.2 9.7 0.00 1.40 0.97 85 1007.3
20260507142006 12 328 3.2 14.5 0.00 1.40 0.97 87 1007.2
20260507141107 12 318 4.8 12.9 0.00 1.40 0.97 90 1007.6
20260507135307 11 295 4.8 14.5 0.00 1.40 0.97 92 1007.6
20260507134406 11 327 4.8 11.3 0.00 1.40 0.97 93 1007.8
20260507133506 10 318 3.2 8.0 0.00 1.40 0.97 92 1007.6
20260507132606 10 325 3.2 8.0 0.00 1.40 0.97 92 1007.6
20260507131706 10 323 3.2 6.4 0.00 1.40 0.97 92 1007.9
20260507130807 10 350 1.6 4.8 0.03 1.40 0.97 92 1007.6
20260507125906 10 338 3.2 6.4 0.05 1.40 0.97 92 1007.6
20260507125006 10 344 3.2 8.0 0.05 1.40 0.97 92 1007.6
20260507124106 10 339 0.0 6.4 0.05 1.40 0.97 93 1007.6
20260507123206 9 12 3.2 8.0 0.05 1.40 0.97 93 1007.7
20260507122307 9 359 3.2 11.3 0.08 1.40 0.97 93 1007.9
20260507121406 9 342 3.2 8.0 0.08 1.37 0.94 93 1008.0
20260507120506 9 339 6.4 17.7 0.08 1.37 0.94 93 1007.7
20260507115606 9 351 3.2 12.9 0.05 1.35 0.91 93 1007.6
20260507112907 9 16 4.8 11.3 0.05 1.35 0.91 93 1007.6
20260507112006 9 341 4.8 14.5 0.05 1.32 0.89 93 1007.7
20260507111106 9 337 6.4 16.1 0.03 1.30 0.86 93 1007.9
20260507105307 9 4 6.4 19.3 0.05 1.30 0.86 94 1006.7
20260507104406 9 11 8.0 16.1 0.05 1.30 0.86 93 1006.6
20260507102606 10 1 6.4 14.5 0.08 1.30 0.86 94 1007.1
20260507101705 10 8 6.4 19.3 0.08 1.27 0.84 94 1006.7
20260507100806 10 349 8.0 22.5 0.10 1.27 0.84 95 1006.5
20260507095907 10 356 8.0 22.5 0.10 1.27 0.84 95 1006.6
20260507095006 10 357 4.8 14.5 0.10 1.24 0.81 95 1006.4
20260507094105 11 342 4.8 14.5 0.10 1.22 0.79 95 1006.4
20260507093206 11 331 6.4 16.1 0.13 1.22 0.79 96 1006.2
20260507092307 11 356 4.8 12.9 0.20 1.22 0.79 96 1006.1
20260507091405 11 329 4.8 12.9 0.28 1.19 0.76 96 1006.4
20260507090505 11 343 8.0 19.3 0.53 1.17 0.74 96 1006.5
20260507085605 11 1 8.0 19.3 0.69 1.14 0.71 96 1005.5
20260507084705 12 357 4.8 17.7 0.71 1.14 0.71 96 1006.5
20260507083807 12 321 0.0 1.6 0.69 1.12 0.69 96 1006.0
20260507082905 12 310 3.2 9.7 0.66 1.09 0.66 96 1006.1
20260507082005 12 318 4.8 12.9 0.56 0.99 0.56 96 1005.7
20260507081105 12 298 8.0 17.7 0.43 0.86 0.43 96 1006.7
20260507080205 12 283 1.6 9.7 0.18 0.61 0.18 96 1006.0
20260507075307 12 0 0.0 0.0 0.03 0.46 0.03 96 1005.3
20260507074405 12 222 0.0 3.2 0.00 0.43 0.00 96 1005.2
20260507073505 12 221 1.6 4.8 0.00 0.43 0.00 96 1005.1
20260507071705 12 214 1.6 6.4 0.00 0.43 0.00 96 1005.2
20260507070805 12 210 1.6 4.8 0.00 0.43 0.00 96 1005.3
20260507065905 12 219 0.0 4.8 0.00 0.43 0.00 96 1005.4
20260507065005 12 217 0.0 4.8 0.00 0.43 0.00 96 1005.5
20260507064105 12 0 0.0 0.0 0.00 0.43 0.00 96 1005.5
20260507061405 12 0 0.0 0.0 0.00 0.43 0.00 96 1005.5
20260507060505 12 284 0.0 4.8 0.00 0.43 0.00 96 1005.9
20260507055605 12 247 1.6 4.8 0.00 0.43 0.00 96 1005.9
20260507054705 12 255 1.6 6.4 0.00 0.43 0.00 96 1005.9
20260507053805 12 284 1.6 6.4 0.00 0.43 0.00 96 1006.1
20260507052905 12 271 3.2 9.7 0.00 0.43 0.00 96 1006.3
20260507052005 12 273 4.8 11.3 0.00 0.43 0.00 96 1006.4
20260507051105 12 264 4.8 12.9 0.00 0.43 0.00 96 1006.6
20260507050205 12 250 3.2 9.7 0.00 0.43 0.00 96 1006.4
20260507045306 12 233 3.2 12.9 0.00 0.43 0.00 96 1006.5
20260507044405 12 218 1.6 8.0 0.00 0.43 0.00 96 1006.5
20260507042605 12 247 3.2 8.0 0.00 0.43 0.00 96 1006.4
20260507041705 12 220 3.2 11.3 0.00 0.43 0.00 96 1006.6
20260507040805 12 206 4.8 12.9 0.00 0.43 0.00 96 1006.5
20260507035905 12 221 4.8 20.9 0.00 0.43 0.43 96 1006.7
20260507035005 12 207 4.8 14.5 0.00 0.43 0.43 96 1006.7
20260507034105 12 223 4.8 17.7 0.00 0.43 0.43 96 1006.7
20260507032306 12 247 6.4 16.1 0.00 0.43 0.43 96 1007.1
20260507031405 12 233 8.0 20.9 0.00 0.43 0.43 95 1006.9
20260507030505 12 236 9.7 22.5 0.00 0.43 0.43 95 1006.9
20260507025605 12 230 6.4 17.7 0.00 0.43 0.43 95 1006.8
20260507024704 12 205 9.7 29.0 0.00 0.43 0.43 95 1006.5
20260507023805 12 216 8.0 17.7 0.00 0.43 0.43 95 1006.8
20260507022905 12 216 11.3 27.4 0.00 0.43 0.43 95 1006.9
20260507022005 13 212 9.7 24.1 0.00 0.43 0.43 95 1007.0
20260507020204 13 220 9.7 25.7 0.00 0.43 0.43 95 1007.3
20260507015306 13 224 11.3 27.4 0.00 0.43 0.43 95 1007.4
20260507014405 13 222 11.3 24.1 0.00 0.43 0.43 95 1007.5
20260507013505 13 234 8.0 24.1 0.00 0.43 0.43 95 1007.6
20260507012604 13 238 11.3 24.1 0.00 0.43 0.43 95 1007.7
20260507010804 13 239 9.7 30.6 0.00 0.43 0.43 95 1007.8
20260507005004 13 228 11.3 29.0 0.03 0.43 0.43 95 1007.7
20260507003204 13 234 11.3 27.4 0.05 0.43 0.43 95 1007.6
20260507002306 13 228 9.7 27.4 0.10 0.43 0.43 95 1007.6
20260507001404 13 221 12.9 25.7 0.13 0.43 0.43 95 1007.6
20260507000505 13 226 16.1 33.8 0.13 0.41 0.41 95 1007.7
20260506235604 13 223 14.5 37.0 0.15 0.41 0.41 95 1007.6
20260506234704 13 216 14.5 33.8 0.23 0.41 0.41 95 1007.6
20260506233804 13 215 11.3 29.0 0.23 0.38 0.38 94 1007.4
20260506232004 13 196 11.3 24.1 0.20 0.33 0.33 94 1007.4
20260506231104 13 196 12.9 30.6 0.18 0.28 0.28 93 1007.3
20260506230204 13 207 12.9 30.6 0.20 0.28 0.28 93 1007.5
20260506225306 13 203 16.1 40.2 0.15 0.20 0.23 92 1007.6
20260506224404 13 211 14.5 30.6 0.15 0.18 0.18 92 1007.7
20260506222604 13 215 11.3 27.4 0.10 0.13 0.13 91 1007.9
20260506221704 13 210 16.1 32.2 0.10 0.13 0.13 91 1008.1
20260506220804 13 206 11.3 30.6 0.05 0.08 0.08 91 1008.2
20260506215904 13 199 9.7 20.9 0.05 0.08 0.08 90 1008.2
20260506215005 14 208 11.3 29.0 0.03 0.05 0.05 89 1008.1
20260506214104 14 205 11.3 25.7 0.00 0.03 0.03 89 1008.2
20260506213204 14 199 12.9 29.0 0.03 0.03 0.03 89 1008.1
20260506212306 14 205 12.9 32.2 0.03 0.03 0.03 88 1008.4
20260506211404 14 204 16.1 30.6 0.03 0.03 0.03 88 1008.5
20260506210504 14 203 16.1 38.6 0.03 0.03 0.03 87 1008.6
20260506205604 15 212 16.1 38.6 0.03 0.03 0.03 87 1008.6
20260506203804 15 214 17.7 37.0 0.03 0.03 0.03 87 1008.6
20260506202904 15 201 14.5 30.6 0.00 0.00 0.00 87 1008.7
20260506202004 15 208 14.5 30.6 0.00 0.00 0.00 87 1008.8
20260506200204 15 202 16.1 33.8 0.00 0.00 0.00 84 1008.9
20260506195306 15 210 12.9 32.2 0.00 0.00 0.00 84 1009.1
20260506193504 15 198 16.1 48.3 0.00 0.00 0.00 83 1009.3